Location: Drouwen
(52.9559°N, 6.7974°E)
Time: 08:03:58
(UTC+00:00)

Cosmos 2237 Rocket - Pass Details

Date: 15 May 2026
Orbit: 833 x 849 km, 71.0° (Epoch: 5 June)

Event Time Altitude Azimuth Distance (km) Brightness Sun altitude
Rises 20:50:53 0° 326° (NW) 3,424 7.7 -10.3°
Reaches altitude 10° 20:53:57 10° 342° (NNW) 2,484 6.0 -10.6°
Maximum altitude 20:58:16 22° 31° (NNE) 1,795 4.2 -11.0°
Drops below altitude 10° 21:02:34 10° 81° (E) 2,470 4.4 -11.3°
Enters shadow 21:05:19 - 95° (E) 3,302 4.9 -11.6°
